Weather History for International Falls, MN

Change the Weather History Date:

Saturday, August 17, 2013

  Actual Average Record
Temperature  
Mean Temperature 66 °F 64 °F  
Max Temperature 78 °F 76 °F 90 °F (1945)
Min Temperature 54 °F 51 °F 35 °F (1954)
Degree Days  
Heating Degree Days 0 3  
Month to date heating degree days 124 45  
Since 1 June heating degree days 378 279  
Since 1 July heating degree days 209 115  
Cooling Degree Days 1 2  
Month to date cooling degree days 1 34  
Year to date cooling degree days 128 157  
Since 1 June cooling degree days 125 148  
Growing Degree Days 16 (Base 50)    
Moisture  
Dew Point 58 °F    
Average Humidity 75    
Maximum Humidity 93    
Minimum Humidity 56    
Precipitation  
Precipitation 0.00 in 0.08 in 2.51 in (2005)
Month to date precipitation 1.04 1.55  
Year to date precipitation 22.42 15.70  
Snow  
Snow 0.00 in 0.00 in 0.00 in (2002)
Month to date snowfall 0.0 0.0  
Since 1 June snowfall 0.0 0.0  
Since 1 July snowfall 0.0 0.0  
Snow Depth 0.00 in    
Sea Level Pressure  
Sea Level Pressure 30.05 in    
Wind  
Wind Speed 6 mph (SSW)    
Max Wind Speed 17 mph    
Max Gust Speed 28 mph    
Visibility 10 miles    
Events      
T = Trace of Precipitation, MM = Missing Value Source: NWS Daily Summary

Daily Weather History Graph

Daily Weather History Graph

Search for Another Location

Airport:

Trip Planner

Search our weather history database for the weather conditions in past years. The results will help you decide how hot, cold, wet, or windy it might be!

Date:

Astronomy

Aug. 17, 2013 Rise Set
Actual Time 6:10 AM CDT 8:23 PM CDT
Civil Twilight 5:35 AM CDT 8:58 PM CDT
Nautical Twilight 4:52 AM CDT 9:40 PM CDT
Astronomical Twilight 4:04 AM CDT 10:29 PM CDT
Moon 5:48 PM CDT (8/17) 2:04 AM CDT (8/17)
Length of Visible Light 15h 22m
Length of Day
14h 13m
Waxing Gibbous, 84% of the Moon is Illuminated
Aug 17
Waxing Gibbous
Aug 20
Full
Aug 28
Last Quarter
Sep 5
New
Sep 12
First Quarter

Hourly Weather History & Observations

Time (CDT) Temp. Dew Point Humidity Pressure Visibility Wind Dir Wind Speed Gust Speed Precip Events Conditions
12:55 AM 59.0 °F 55.0 °F 87% 30.09 in 10.0 mi Variable 3.5 mph - N/A   Clear
1:55 AM 57.9 °F 54.0 °F 87% 30.09 in 10.0 mi Calm Calm - N/A   Clear
2:55 AM 57.0 °F 53.1 °F 87% 30.09 in 10.0 mi Calm Calm - N/A   Clear
3:55 AM 55.9 °F 53.1 °F 90% 30.09 in 10.0 mi Calm Calm - N/A   Clear
4:55 AM 55.9 °F 53.1 °F 90% 30.09 in 10.0 mi Calm Calm - N/A   Clear
5:55 AM 55.0 °F 53.1 °F 93% 30.09 in 10.0 mi Calm Calm - N/A   Clear
6:55 AM 55.9 °F 54.0 °F 93% 30.09 in 10.0 mi SSW 4.6 mph - N/A   Clear
7:55 AM 60.1 °F 55.9 °F 86% 30.09 in 10.0 mi SSW 5.8 mph 24.2 mph N/A   Clear
8:55 AM 64.9 °F 57.9 °F 78% 30.09 in 10.0 mi SSW 8.1 mph - N/A   Clear
9:55 AM 69.1 °F 59.0 °F 70% 30.09 in 10.0 mi SW 11.5 mph 20.7 mph N/A   Clear
10:55 AM 71.1 °F 59.0 °F 66% 30.09 in 10.0 mi SW 16.1 mph 23.0 mph N/A   Scattered Clouds
11:55 AM 73.0 °F 59.0 °F 61% 30.08 in 10.0 mi SW 13.8 mph 21.9 mph N/A   Scattered Clouds
12:55 PM 73.0 °F 60.1 °F 64% 30.05 in 10.0 mi SW 12.7 mph 18.4 mph N/A   Partly Cloudy
1:55 PM 75.9 °F 59.0 °F 56% 30.04 in 10.0 mi SSW 11.5 mph 23.0 mph N/A   Scattered Clouds
2:55 PM 75.0 °F 59.0 °F 57% 30.03 in 10.0 mi SW 12.7 mph 19.6 mph N/A   Clear
3:55 PM 77.0 °F 60.1 °F 56% 30.01 in 10.0 mi SSW 12.7 mph 19.6 mph N/A   Clear
4:55 PM 77.0 °F 60.1 °F 56% 30.01 in 10.0 mi South 8.1 mph 23.0 mph N/A   Clear
5:55 PM 75.9 °F 61.0 °F 60% 29.99 in 10.0 mi SSW 12.7 mph 21.9 mph N/A   Clear
6:55 PM 73.9 °F 61.0 °F 64% 29.98 in 10.0 mi SSW 6.9 mph - N/A   Clear
7:55 PM 72.0 °F 60.1 °F 66% 29.97 in 10.0 mi Calm Calm - N/A   Clear
8:55 PM 69.1 °F 59.0 °F 70% 29.98 in 10.0 mi Variable 4.6 mph - N/A   Clear
9:55 PM 64.9 °F 59.0 °F 81% 29.99 in 10.0 mi Calm Calm - N/A   Clear
10:55 PM 64.9 °F 59.0 °F 81% 29.99 in 10.0 mi Calm Calm - N/A   Clear
11:55 PM 64.0 °F 57.9 °F 80% 29.99 in 10.0 mi Variable 3.5 mph - N/A   Clear